sat.trackr.live / text

‹ back to catalog

2022-023F

NORAD 51951 · 2022-023F

PAYLOAD ACTIVE UNKNOWN

§ Identity

Operator
Country
PRC
Launch date
2022-03-05
Launch site
XICLF
Launch vehicle
Mass (kg)
RCS (m²)

External: N2YO · Heavens-Above · Gunter

§ Orbital elements

Epoch: 2026-09-20T22:22:54.294240Z

Period
94.87 min
Inclination
63.4534°
Eccentricity
0.0136004
Mean motion
15.17946118 rev/d
Perigee alt
418.3 km
Apogee alt
605.8 km
Semi-major
6,890.2 km
B*
5.3726e-4
RAAN
308.0184°
Arg perigee
342.0878°
Mean anomaly
17.5464°
Rev number
25,224

§ Raw data

2022-023F1 51951U 22023F   26263.93257285  .00013754  00000+0  53726-3 0  99952 51951  63.4534 308.0184 0136004 342.0878  17.5464 15.17946118252243

JSON: /api/v1/satellites/51951 · /tle

For live sub-satellite position, see the globe view (requires WebGL).

§ Visibility from observer

Set your observer location to see the next 7 days of passes ≥ 10°. The values pass through the URL so the page stays shareable.

No JS? Fill the form by hand. The geolocation button needs JavaScript.

§ Radio — SatNOGS DB

ModeDescriptionDownlinkUplink
FM Telemetry 402.792 MHz

1 transmitter · refreshed weekly from db.satnogs.org